Time,TemperatureF,DewpointF,PressureIn,WindDirection,WindDirectionDegrees,WindSpeedMPH,WindSpeedGustMPH,Humidity,HourlyPrecipIn,Conditions,Clouds,dailyrainin,SoftwareType,DateUTC
2013-01-21 00:00:00,13.5,2.1,30.12,North,0,0.0,0.0,60,0.00,,,0.00,WUHU21623XXSP,2013-01-21 05:00:00,
2013-01-21 00:03:00,13.5,2.1,30.12,North,0,0.0,0.0,60,0.00,,,0.00,WUHU21623XXSP,2013-01-21 05:03:00,
2013-01-21 00:08:00,13.6,2.3,30.12,North,0,0.0,0.0,60,0.00,,,0.00,WUHU21623XXSP,2013-01-21 05:08:00,
2013-01-21 00:13:00,13.6,2.3,30.12,SW,225,0.0,0.0,60,0.00,,,0.00,WUHU21623XXSP,2013-01-21 05:13:00,
2013-01-21 00:18:00,13.5,2.1,30.12,NNW,337,3.8,3.8,60,0.00,,,0.00,WUHU21623XXSP,2013-01-21 05:18:00,
2013-01-21 00:23:00,13.6,2.3,30.11,North,0,0.0,3.8,60,0.00,,,0.00,WUHU21623XXSP,2013-01-21 05:23:00,
2013-01-21 00:28:00,13.3,1.9,30.11,SSW,202,0.0,0.0,60,0.00,,,0.00,WUHU21623XXSP,2013-01-21 05:28:00,
2013-01-21 00:33:00,13.6,2.3,30.11,North,0,0.0,0.0,60,0.00,,,0.00,WUHU21623XXSP,2013-01-21 05:33:00,
2013-01-21 00:38:00,13.6,2.3,30.11,North,0,0.0,0.0,60,0.00,,,0.00,WUHU21623XXSP,2013-01-21 05:38:00,
2013-01-21 00:43:00,13.6,2.6,30.11,NNW,337,0.0,0.0,61,0.00,,,0.00,WUHU21623XXSP,2013-01-21 05:43:00,
2013-01-21 00:48:00,13.6,2.3,30.11,NNW,337,0.0,0.0,60,0.00,,,0.00,WUHU21623XXSP,2013-01-21 05:48:00,
2013-01-21 00:53:00,13.6,2.3,30.11,NNW,337,0.0,0.0,60,0.00,,,0.00,WUHU21623XXSP,2013-01-21 05:53:00,
2013-01-21 00:58:00,13.6,2.6,30.10,SSW,202,0.0,0.0,61,0.00,,,0.00,WUHU21623XXSP,2013-01-21 05:58:00,
2013-01-21 01:03:00,13.6,2.6,30.09,SSW,202,0.0,0.0,61,0.00,,,0.00,WUHU21623XXSP,2013-01-21 06:03:00,
2013-01-21 01:08:00,13.6,2.6,30.09,SSW,202,0.0,0.0,61,0.00,,,0.00,WUHU21623XXSP,2013-01-21 06:08:00,
2013-01-21 01:13:00,13.6,2.6,30.09,SSW,202,0.0,0.0,61,0.00,,,0.00,WUHU21623XXSP,2013-01-21 06:13:00,
2013-01-21 01:18:00,13.6,2.6,30.08,SW,225,0.0,0.0,61,0.00,,,0.00,WUHU21623XXSP,2013-01-21 06:18:00,
2013-01-21 01:23:00,13.6,2.6,30.09,SW,225,0.0,0.0,61,0.00,,,0.00,WUHU21623XXSP,2013-01-21 06:23:00,
2013-01-21 01:28:00,13.6,2.6,30.08,SW,225,0.0,0.0,61,0.00,,,0.00,WUHU21623XXSP,2013-01-21 06:28:00,
2013-01-21 01:33:00,13.6,2.6,30.09,SW,225,0.0,0.0,61,0.00,,,0.00,WUHU21623XXSP,2013-01-21 06:33:00,
2013-01-21 01:38:00,13.6,2.6,30.08,SW,225,0.0,0.0,61,0.00,,,0.00,WUHU21623XXSP,2013-01-21 06:38:00,
2013-01-21 01:43:00,13.8,2.8,30.08,SW,225,0.0,0.0,61,0.00,,,0.00,WUHU21623XXSP,2013-01-21 06:43:00,
2013-01-21 01:48:00,13.6,2.6,30.07,SW,225,0.0,0.0,61,0.00,,,0.00,WUHU21623XXSP,2013-01-21 06:48:00,
2013-01-21 01:53:00,13.6,2.6,30.07,SW,225,0.0,0.0,61,0.00,,,0.00,WUHU21623XXSP,2013-01-21 06:53:00,
2013-01-21 01:58:00,13.8,2.8,30.07,SW,225,0.0,0.0,61,0.00,,,0.00,WUHU21623XXSP,2013-01-21 06:58:00,
2013-01-21 02:03:00,13.8,2.8,30.07,SW,225,0.0,0.0,61,0.00,,,0.00,WUHU21623XXSP,2013-01-21 07:03:00,
2013-01-21 02:08:00,13.6,2.6,30.08,SW,225,0.0,0.0,61,0.00,,,0.00,WUHU21623XXSP,2013-01-21 07:08:00,
2013-01-21 02:13:00,13.6,2.6,30.07,SW,225,0.0,0.0,61,0.00,,,0.00,WUHU21623XXSP,2013-01-21 07:13:00,
2013-01-21 02:18:00,13.6,2.6,30.07,SW,225,0.0,0.0,61,0.00,,,0.00,WUHU21623XXSP,2013-01-21 07:18:00,
2013-01-21 02:23:00,13.6,3.0,30.07,SW,225,0.0,0.0,62,0.00,,,0.00,WUHU21623XXSP,2013-01-21 07:23:00,
2013-01-21 02:28:00,13.3,2.6,30.08,SW,225,0.0,0.0,62,0.00,,,0.00,WUHU21623XXSP,2013-01-21 07:28:00,
2013-01-21 02:33:00,13.3,2.6,30.07,SW,225,0.0,0.0,62,0.00,,,0.00,WUHU21623XXSP,2013-01-21 07:33:00,
2013-01-21 02:38:00,13.3,2.6,30.07,SW,225,0.0,0.0,62,0.00,,,0.00,WUHU21623XXSP,2013-01-21 07:38:00,
2013-01-21 02:43:00,13.3,3.0,30.07,SW,225,0.0,0.0,63,0.00,,,0.00,WUHU21623XXSP,2013-01-21 07:43:00,
2013-01-21 02:48:00,13.3,3.0,30.07,SW,225,0.0,0.0,63,0.00,,,0.00,WUHU21623XXSP,2013-01-21 07:48:00,
2013-01-21 02:53:00,13.3,3.0,30.07,SW,225,0.0,0.0,63,0.00,,,0.00,WUHU21623XXSP,2013-01-21 07:53:00,
2013-01-21 02:58:00,13.3,3.3,30.07,SW,225,0.0,0.0,64,0.00,,,0.00,WUHU21623XXSP,2013-01-21 07:58:00,
2013-01-21 03:03:00,13.3,3.3,30.06,SW,225,0.0,0.0,64,0.00,,,0.00,WUHU21623XXSP,2013-01-21 08:03:00,
2013-01-21 03:08:00,13.3,3.3,30.07,SW,225,0.0,0.0,64,0.00,,,0.00,WUHU21623XXSP,2013-01-21 08:08:00,
2013-01-21 03:13:00,13.3,3.3,30.06,SW,225,0.0,0.0,64,0.00,,,0.00,WUHU21623XXSP,2013-01-21 08:13:00,
2013-01-21 03:18:00,13.3,3.3,30.06,SSW,202,0.0,0.0,64,0.00,,,0.00,WUHU21623XXSP,2013-01-21 08:18:00,
2013-01-21 03:23:00,13.3,3.6,30.06,SSW,202,0.0,0.0,65,0.00,,,0.00,WUHU21623XXSP,2013-01-21 08:23:00,
2013-01-21 03:28:00,13.3,3.6,30.06,SSW,202,0.0,0.0,65,0.00,,,0.00,WUHU21623XXSP,2013-01-21 08:28:00,
2013-01-21 03:33:00,13.5,3.8,30.06,SSW,202,0.0,0.0,65,0.00,,,0.00,WUHU21623XXSP,2013-01-21 08:33:00,
2013-01-21 03:38:00,13.6,4.0,30.06,SSW,202,0.0,0.0,66,0.00,,,0.00,WUHU21623XXSP,2013-01-21 08:38:00,
2013-01-21 03:43:00,13.6,4.4,30.05,SSW,202,0.0,0.0,66,0.00,,,0.00,WUHU21623XXSP,2013-01-21 08:43:00,
2013-01-21 03:48:00,13.6,4.4,30.05,SSW,202,0.0,0.0,66,0.00,,,0.00,WUHU21623XXSP,2013-01-21 08:48:00,
2013-01-21 03:53:00,13.6,4.4,30.04,SSW,202,0.0,0.0,66,0.00,,,0.00,WUHU21623XXSP,2013-01-21 08:53:00,
2013-01-21 03:58:00,13.8,4.9,30.04,SSW,202,0.0,0.0,67,0.00,,,0.00,WUHU21623XXSP,2013-01-21 08:58:00,
2013-01-21 04:03:00,13.8,4.9,30.04,SSW,202,0.0,0.0,67,0.00,,,0.00,WUHU21623XXSP,2013-01-21 09:03:00,
2013-01-21 04:08:00,13.8,4.9,30.04,SSW,202,0.0,0.0,67,0.00,,,0.00,WUHU21623XXSP,2013-01-21 09:08:00,
2013-01-21 04:13:00,13.8,4.9,30.03,SSW,202,0.0,0.0,67,0.00,,,0.00,WUHU21623XXSP,2013-01-21 09:13:00,
2013-01-21 04:18:00,13.8,4.9,30.03,SSW,202,0.0,0.0,67,0.00,,,0.00,WUHU21623XXSP,2013-01-21 09:18:00,
2013-01-21 04:23:00,14.0,4.9,30.03,SSW,202,0.0,0.0,67,0.00,,,0.00,WUHU21623XXSP,2013-01-21 09:23:00,
2013-01-21 04:28:00,14.2,5.1,30.03,SSW,202,0.0,0.0,67,0.00,,,0.00,WUHU21623XXSP,2013-01-21 09:28:00,
2013-01-21 04:33:00,14.2,5.6,30.02,South,180,0.0,0.0,68,0.00,,,0.00,WUHU21623XXSP,2013-01-21 09:33:00,
2013-01-21 04:38:00,14.2,5.6,30.02,South,180,0.0,0.0,68,0.00,,,0.00,WUHU21623XXSP,2013-01-21 09:38:00,
2013-01-21 04:43:00,14.2,5.9,30.01,SSE,157,0.0,0.0,69,0.00,,,0.00,WUHU21623XXSP,2013-01-21 09:43:00,
2013-01-21 04:48:00,14.2,6.2,30.01,SSE,157,0.0,0.0,70,0.00,,,0.00,WUHU21623XXSP,2013-01-21 09:48:00,
2013-01-21 04:53:00,14.2,6.2,30.01,South,180,0.0,0.0,70,0.00,,,0.00,WUHU21623XXSP,2013-01-21 09:53:00,
2013-01-21 04:58:00,14.2,6.2,30.01,South,180,0.0,0.0,70,0.00,,,0.00,WUHU21623XXSP,2013-01-21 09:58:00,
2013-01-21 05:03:00,14.2,6.2,30.01,South,180,0.0,0.0,70,0.00,,,0.00,WUHU21623XXSP,2013-01-21 10:03:00,
2013-01-21 05:08:00,14.2,6.2,30.01,SSE,157,0.0,0.0,70,0.00,,,0.00,WUHU21623XXSP,2013-01-21 10:08:00,
2013-01-21 05:13:00,14.2,6.5,30.01,SSE,157,0.0,0.0,71,0.00,,,0.00,WUHU21623XXSP,2013-01-21 10:13:00,
2013-01-21 05:18:00,14.2,6.5,30.01,South,180,0.0,0.0,71,0.00,,,0.00,WUHU21623XXSP,2013-01-21 10:18:00,
2013-01-21 05:23:00,14.2,6.5,30.00,SSE,157,0.0,0.0,72,0.00,,,0.00,WUHU21623XXSP,2013-01-21 10:23:00,
2013-01-21 05:28:00,14.2,6.8,30.00,SSE,157,0.0,0.0,72,0.00,,,0.00,WUHU21623XXSP,2013-01-21 10:28:00,
2013-01-21 05:33:00,14.2,6.8,30.00,SSE,157,0.0,0.0,72,0.00,,,0.00,WUHU21623XXSP,2013-01-21 10:33:00,
2013-01-21 05:38:00,14.2,7.1,30.00,SSE,157,0.0,0.0,73,0.00,,,0.00,WUHU21623XXSP,2013-01-21 10:38:00,
2013-01-21 05:43:00,14.2,7.1,29.99,SSE,157,0.0,0.0,73,0.00,,,0.00,WUHU21623XXSP,2013-01-21 10:43:00,
2013-01-21 05:48:00,14.2,7.1,29.99,SSE,157,0.0,0.0,73,0.00,,,0.00,WUHU21623XXSP,2013-01-21 10:48:00,
2013-01-21 05:53:00,14.2,7.1,29.99,SSE,157,0.0,0.0,73,0.00,,,0.00,WUHU21623XXSP,2013-01-21 10:53:00,
2013-01-21 05:58:00,14.2,7.1,29.99,SSE,157,0.0,0.0,73,0.00,,,0.00,WUHU21623XXSP,2013-01-21 10:58:00,
2013-01-21 06:03:00,14.2,7.4,29.99,SSE,157,0.0,0.0,74,0.00,,,0.00,WUHU21623XXSP,2013-01-21 11:03:00,
2013-01-21 06:08:00,14.2,7.4,29.99,SSE,157,0.0,0.0,74,0.00,,,0.00,WUHU21623XXSP,2013-01-21 11:08:00,
2013-01-21 06:13:00,14.2,7.4,29.99,SSE,157,0.0,0.0,74,0.00,,,0.00,WUHU21623XXSP,2013-01-21 11:13:00,
2013-01-21 06:18:00,14.2,7.4,29.99,SSE,157,0.0,0.0,74,0.00,,,0.00,WUHU21623XXSP,2013-01-21 11:18:00,
2013-01-21 06:23:00,14.2,7.4,29.98,SSE,157,0.0,0.0,74,0.00,,,0.00,WUHU21623XXSP,2013-01-21 11:23:00,
2013-01-21 06:28:00,14.2,7.4,29.98,SSE,157,0.0,0.0,74,0.00,,,0.00,WUHU21623XXSP,2013-01-21 11:28:00,
2013-01-21 06:33:00,14.2,7.4,29.98,SSE,157,0.0,0.0,74,0.00,,,0.00,WUHU21623XXSP,2013-01-21 11:33:00,
2013-01-21 06:38:00,14.4,7.6,29.98,SSE,157,0.0,0.0,74,0.00,,,0.00,WUHU21623XXSP,2013-01-21 11:38:00,
2013-01-21 06:43:00,14.4,7.6,29.99,SW,225,0.0,0.0,74,0.00,,,0.00,WUHU21623XXSP,2013-01-21 11:43:00,
2013-01-21 06:48:00,14.4,7.9,29.98,NNW,337,0.0,0.0,75,0.00,,,0.00,WUHU21623XXSP,2013-01-21 11:48:00,
2013-01-21 06:53:00,14.5,8.0,29.98,NNW,337,0.0,0.0,75,0.00,,,0.00,WUHU21623XXSP,2013-01-21 11:53:00,
2013-01-21 06:58:00,14.5,8.0,29.98,NNW,337,0.0,0.0,75,0.00,,,0.00,WUHU21623XXSP,2013-01-21 11:58:00,
2013-01-21 07:03:00,14.5,8.0,29.98,NNW,337,0.0,0.0,75,0.00,,,0.00,WUHU21623XXSP,2013-01-21 12:03:00,
2013-01-21 07:08:00,14.5,8.3,29.98,NNW,337,0.0,0.0,76,0.00,,,0.00,WUHU21623XXSP,2013-01-21 12:08:00,
2013-01-21 07:13:00,14.5,8.3,29.98,NNW,337,0.0,0.0,76,0.00,,,0.00,WUHU21623XXSP,2013-01-21 12:13:00,
2013-01-21 07:18:00,14.5,8.3,29.98,NNW,337,0.0,0.0,76,0.00,,,0.00,WUHU21623XXSP,2013-01-21 12:18:00,
2013-01-21 07:23:00,14.5,8.3,29.98,NNW,337,0.0,0.0,76,0.00,,,0.00,WUHU21623XXSP,2013-01-21 12:23:00,
2013-01-21 07:28:00,14.5,8.3,29.98,North,0,0.0,0.0,76,0.00,,,0.00,WUHU21623XXSP,2013-01-21 12:28:00,
2013-01-21 07:33:00,14.5,8.3,29.98,North,0,0.0,0.0,76,0.00,,,0.00,WUHU21623XXSP,2013-01-21 12:33:00,
2013-01-21 07:38:00,14.4,8.1,29.98,North,0,0.0,0.0,76,0.00,,,0.00,WUHU21623XXSP,2013-01-21 12:38:00,
2013-01-21 07:43:00,14.2,8.0,29.99,SSW,202,0.0,0.0,76,0.00,,,0.00,WUHU21623XXSP,2013-01-21 12:43:00,
2013-01-21 07:48:00,14.2,8.3,29.99,SSW,202,0.0,0.0,77,0.00,,,0.00,WUHU21623XXSP,2013-01-21 12:48:00,
2013-01-21 07:53:00,14.2,8.3,29.98,SW,225,0.0,0.0,77,0.00,,,0.00,WUHU21623XXSP,2013-01-21 12:53:00,
2013-01-21 07:58:00,13.8,8.0,29.98,North,0,0.0,0.0,76,0.00,,,0.00,WUHU21623XXSP,2013-01-21 12:58:00,
2013-01-21 08:03:00,13.8,7.6,29.98,SW,225,0.0,0.0,76,0.00,,,0.00,WUHU21623XXSP,2013-01-21 13:03:00,
2013-01-21 08:08:00,13.6,7.4,29.98,SSW,202,0.0,0.0,76,0.00,,,0.00,WUHU21623XXSP,2013-01-21 13:08:00,
2013-01-21 08:13:00,13.6,7.4,29.98,SW,225,0.0,0.0,76,0.00,,,0.00,WUHU21623XXSP,2013-01-21 13:13:00,
2013-01-21 08:18:00,13.3,7.1,29.98,North,0,0.0,0.0,76,0.00,,,0.00,WUHU21623XXSP,2013-01-21 13:18:00,
2013-01-21 08:23:00,13.3,7.1,29.98,North,0,0.0,0.0,76,0.00,,,0.00,WUHU21623XXSP,2013-01-21 13:23:00,
2013-01-21 08:28:00,13.3,6.8,29.98,SSW,202,0.0,0.0,75,0.00,,,0.00,WUHU21623XXSP,2013-01-21 13:28:00,
2013-01-21 08:33:00,13.1,6.6,29.98,SW,225,0.0,0.0,75,0.00,,,0.00,WUHU21623XXSP,2013-01-21 13:33:00,
2013-01-21 08:38:00,12.9,6.4,29.98,NNW,337,0.0,0.0,75,0.00,,,0.00,WUHU21623XXSP,2013-01-21 13:38:00,
2013-01-21 08:43:00,12.9,6.4,29.99,NNW,337,0.0,0.0,75,0.00,,,0.00,WUHU21623XXSP,2013-01-21 13:43:00,
2013-01-21 08:48:00,12.9,6.7,29.98,North,0,0.0,0.0,76,0.00,,,0.00,WUHU21623XXSP,2013-01-21 13:48:00,
2013-01-21 08:53:00,12.9,7.0,29.98,SW,225,0.0,0.0,77,0.00,,,0.00,WUHU21623XXSP,2013-01-21 13:53:00,
2013-01-21 08:58:00,12.9,7.0,29.98,SSW,202,0.0,0.0,77,0.00,,,0.00,WUHU21623XXSP,2013-01-21 13:58:00,
2013-01-21 09:03:00,13.1,7.2,29.98,NNW,337,0.0,0.0,77,0.00,,,0.00,WUHU21623XXSP,2013-01-21 14:03:00,
2013-01-21 09:08:00,13.1,7.2,29.98,NNW,337,0.0,0.0,77,0.00,,,0.00,WUHU21623XXSP,2013-01-21 14:08:00,
2013-01-21 09:13:00,12.9,7.0,29.98,North,0,0.0,0.0,77,0.00,,,0.00,WUHU21623XXSP,2013-01-21 14:13:00,
2013-01-21 09:18:00,12.9,7.0,29.98,NNW,337,0.0,0.0,77,0.00,,,0.00,WUHU21623XXSP,2013-01-21 14:18:00,
2013-01-21 09:23:00,12.9,6.7,29.98,NNW,337,6.5,6.5,76,0.00,,,0.00,WUHU21623XXSP,2013-01-21 14:23:00,
2013-01-21 09:28:00,12.9,6.7,29.98,NNW,337,0.0,6.5,76,0.00,,,0.00,WUHU21623XXSP,2013-01-21 14:28:00,
2013-01-21 09:33:00,13.1,6.9,29.98,North,0,0.0,0.0,76,0.00,,,0.00,WUHU21623XXSP,2013-01-21 14:33:00,
2013-01-21 09:38:00,13.3,7.1,29.98,SW,225,0.0,0.0,76,0.00,,,0.00,WUHU21623XXSP,2013-01-21 14:38:00,
2013-01-21 09:44:00,13.3,7.1,29.98,North,0,0.0,0.0,76,0.00,,,0.00,WUHU21623XXSP,2013-01-21 14:44:00,
2013-01-21 09:48:00,13.6,7.4,29.98,SW,225,0.0,0.0,76,0.00,,,0.00,WUHU21623XXSP,2013-01-21 14:48:00,
2013-01-21 09:53:00,13.8,7.3,29.98,SSW,202,0.0,1.8,75,0.00,,,0.00,WUHU21623XXSP,2013-01-21 14:53:00,
2013-01-21 09:58:00,14.2,7.7,29.98,SSW,202,0.0,1.8,75,0.00,,,0.00,WUHU21623XXSP,2013-01-21 14:58:00,
2013-01-21 10:03:00,14.2,7.7,29.98,North,0,0.0,0.0,75,0.00,,,0.00,WUHU21623XXSP,2013-01-21 15:03:00,
2013-01-21 10:08:00,14.7,7.9,29.98,SW,225,0.0,2.5,74,0.00,,,0.00,WUHU21623XXSP,2013-01-21 15:08:00,
2013-01-21 10:13:00,15.1,7.9,29.99,North,0,0.0,2.5,73,0.00,,,0.00,WUHU21623XXSP,2013-01-21 15:13:00,
2013-01-21 10:18:00,15.4,8.3,29.98,North,0,0.0,0.0,73,0.00,,,0.00,WUHU21623XXSP,2013-01-21 15:18:00,
2013-01-21 10:23:00,16.0,8.5,29.98,SW,225,1.3,1.3,72,0.00,,,0.00,WUHU21623XXSP,2013-01-21 15:23:00,
2013-01-21 10:28:00,16.3,8.7,29.98,SSW,202,0.0,1.3,71,0.00,,,0.00,WUHU21623XXSP,2013-01-21 15:28:00,
2013-01-21 10:33:00,16.7,8.7,29.98,SW,225,0.0,0.0,71,0.00,,,0.00,WUHU21623XXSP,2013-01-21 15:33:00,
2013-01-21 10:38:00,16.9,8.8,29.98,North,0,2.9,2.9,70,0.00,,,0.00,WUHU21623XXSP,2013-01-21 15:38:00,
2013-01-21 10:43:00,16.9,8.4,29.98,North,0,5.1,5.1,69,0.00,,,0.00,WUHU21623XXSP,2013-01-21 15:43:00,
2013-01-21 10:48:00,16.9,8.4,29.98,SW,225,0.0,5.1,69,0.00,,,0.00,WUHU21623XXSP,2013-01-21 15:48:00,
2013-01-21 10:53:00,17.4,9.0,29.98,North,0,3.1,3.1,69,0.00,,,0.00,WUHU21623XXSP,2013-01-21 15:53:00,
2013-01-21 10:58:00,17.8,9.0,29.98,SSW,202,8.3,8.3,68,0.00,,,0.00,WUHU21623XXSP,2013-01-21 15:58:00,
2013-01-21 11:03:00,17.4,8.5,29.98,SW,225,5.6,8.3,66,0.00,,,0.00,WUHU21623XXSP,2013-01-21 16:03:00,
2013-01-21 11:09:00,17.4,8.0,29.98,SW,225,5.6,8.3,66,0.00,,,0.00,WUHU21623XXSP,2013-01-21 16:09:00,
2013-01-21 11:14:00,17.8,7.8,29.98,NNW,337,10.5,10.5,65,0.00,,,0.00,WUHU21623XXSP,2013-01-21 16:14:00,
2013-01-21 11:19:00,18.0,8.1,29.97,North,0,8.9,10.5,65,0.00,,,0.00,WUHU21623XXSP,2013-01-21 16:19:00,
2013-01-21 11:24:00,18.3,7.4,29.97,North,0,6.5,8.9,62,0.00,,,0.00,WUHU21623XXSP,2013-01-21 16:24:00,
2013-01-21 11:29:00,18.0,6.4,29.97,SSW,202,6.3,10.1,60,0.00,,,0.00,WUHU21623XXSP,2013-01-21 16:29:00,
2013-01-21 11:34:00,17.4,5.9,29.97,SW,225,0.0,10.1,60,0.00,,,0.00,WUHU21623XXSP,2013-01-21 16:34:00,
2013-01-21 11:39:00,17.1,5.7,29.96,North,0,0.9,6.3,60,0.00,,,0.00,WUHU21623XXSP,2013-01-21 16:39:00,
2013-01-21 11:44:00,16.7,5.2,29.96,SSW,202,0.0,0.9,60,0.00,,,0.00,WUHU21623XXSP,2013-01-21 16:44:00,
2013-01-21 11:49:00,16.3,4.8,29.96,SSW,202,3.4,3.4,60,0.00,,,0.00,WUHU21623XXSP,2013-01-21 16:49:00,
2013-01-21 11:54:00,16.2,4.8,29.96,SW,225,0.7,3.4,60,0.00,,,0.00,WUHU21623XXSP,2013-01-21 16:54:00,
2013-01-21 11:59:00,16.0,4.5,29.96,North,0,0.0,0.7,60,0.00,,,0.00,WUHU21623XXSP,2013-01-21 16:59:00,
2013-01-21 12:04:00,16.3,4.8,29.96,SSW,202,2.9,2.9,60,0.00,,,0.00,WUHU21623XXSP,2013-01-21 17:04:00,
2013-01-21 12:09:00,16.2,4.2,29.95,SW,225,9.4,9.4,59,0.00,,,0.00,WUHU21623XXSP,2013-01-21 17:09:00,
2013-01-21 12:14:00,16.3,4.4,29.95,SSW,202,2.0,9.4,59,0.00,,,0.00,WUHU21623XXSP,2013-01-21 17:14:00,
2013-01-21 12:19:00,16.3,4.4,29.95,NNW,337,6.3,9.4,59,0.00,,,0.00,WUHU21623XXSP,2013-01-21 17:19:00,
2013-01-21 12:24:00,16.3,4.4,29.95,SSW,202,0.0,7.6,59,0.00,,,0.00,WUHU21623XXSP,2013-01-21 17:24:00,
2013-01-21 12:29:00,16.2,4.6,29.94,SSW,202,0.0,7.6,60,0.00,,,0.00,WUHU21623XXSP,2013-01-21 17:29:00,
2013-01-21 12:34:00,16.0,4.5,29.94,NNW,337,2.0,6.7,60,0.00,,,0.00,WUHU21623XXSP,2013-01-21 17:34:00,
2013-01-21 12:39:00,15.6,4.1,29.95,SSW,202,0.0,6.7,60,0.00,,,0.00,WUHU21623XXSP,2013-01-21 17:39:00,
2013-01-21 12:44:00,15.4,4.0,29.94,North,0,2.2,2.2,60,0.00,,,0.00,WUHU21623XXSP,2013-01-21 17:44:00,
2013-01-21 12:49:00,15.1,4.0,29.94,North,0,4.0,4.0,61,0.00,,,0.00,WUHU21623XXSP,2013-01-21 17:49:00,
2013-01-21 12:54:00,14.7,3.6,29.94,SW,225,0.0,5.1,61,0.00,,,0.00,WUHU21623XXSP,2013-01-21 17:54:00,
2013-01-21 12:59:00,14.5,3.8,29.94,SSW,202,0.0,5.1,62,0.00,,,0.00,WUHU21623XXSP,2013-01-21 17:59:00,
2013-01-21 13:04:00,14.4,3.7,29.94,North,0,2.5,2.5,62,0.00,,,0.00,WUHU21623XXSP,2013-01-21 18:04:00,
2013-01-21 13:09:00,14.5,3.8,29.94,SSW,202,0.0,2.5,62,0.00,,,0.00,WUHU21623XXSP,2013-01-21 18:09:00,
2013-01-21 13:14:00,14.9,4.2,29.93,SW,225,0.0,3.6,62,0.00,,,0.00,WUHU21623XXSP,2013-01-21 18:14:00,
2013-01-21 13:19:00,15.6,4.5,29.94,SW,225,0.0,3.6,61,0.00,,,0.00,WUHU21623XXSP,2013-01-21 18:19:00,
2013-01-21 13:24:00,16.9,5.0,29.94,SSW,202,0.0,13.9,60,0.00,,,0.00,WUHU21623XXSP,2013-01-21 18:24:00,
2013-01-21 13:29:00,16.7,5.5,29.93,NNW,337,1.8,13.9,61,0.00,,,0.00,WUHU21623XXSP,2013-01-21 18:29:00,
2013-01-21 13:34:00,16.3,5.2,29.94,SW,225,4.3,8.1,61,0.00,,,0.00,WUHU21623XXSP,2013-01-21 18:34:00,
2013-01-21 13:39:00,15.6,3.7,29.94,SSW,202,0.0,4.3,59,0.00,,,0.00,WUHU21623XXSP,2013-01-21 18:39:00,
2013-01-21 13:44:00,15.4,3.6,29.94,North,0,7.6,7.6,59,0.00,,,0.00,WUHU21623XXSP,2013-01-21 18:44:00,
2013-01-21 13:49:00,15.3,3.0,29.94,North,0,0.0,7.6,58,0.00,,,0.00,WUHU21623XXSP,2013-01-21 18:49:00,
2013-01-21 13:54:00,15.1,3.2,29.94,NNW,337,6.5,6.5,59,0.00,,,0.00,WUHU21623XXSP,2013-01-21 18:54:00,
2013-01-21 13:59:00,14.7,2.9,29.94,SW,225,6.7,6.7,59,0.00,,,0.00,WUHU21623XXSP,2013-01-21 18:59:00,
2013-01-21 14:04:00,14.5,2.8,29.94,SW,225,1.6,6.7,59,0.00,,,0.00,WUHU21623XXSP,2013-01-21 19:04:00,
2013-01-21 14:09:00,14.4,2.6,29.94,North,0,0.0,1.6,59,0.00,,,0.00,WUHU21623XXSP,2013-01-21 19:09:00,
2013-01-21 14:14:00,14.2,2.8,29.95,SSW,202,2.5,2.5,60,0.00,,,0.00,WUHU21623XXSP,2013-01-21 19:14:00,
2013-01-21 14:19:00,13.8,3.5,29.95,North,0,2.0,7.8,63,0.00,,,0.00,WUHU21623XXSP,2013-01-21 19:19:00,
2013-01-21 14:24:00,13.6,3.7,29.95,SW,225,6.0,7.8,64,0.00,,,0.00,WUHU21623XXSP,2013-01-21 19:24:00,
2013-01-21 14:29:00,13.6,3.7,29.95,SW,225,0.0,6.0,64,0.00,,,0.00,WUHU21623XXSP,2013-01-21 19:29:00,
2013-01-21 14:34:00,13.6,3.7,29.95,SSW,202,0.0,2.9,64,0.00,,,0.00,WUHU21623XXSP,2013-01-21 19:34:00,
2013-01-21 14:39:00,13.3,3.3,29.95,NNW,337,2.2,5.1,64,0.00,,,0.00,WUHU21623XXSP,2013-01-21 19:39:00,
2013-01-21 14:44:00,13.3,3.0,29.96,North,0,4.9,5.1,63,0.00,,,0.00,WUHU21623XXSP,2013-01-21 19:44:00,
2013-01-21 14:49:00,13.6,3.0,29.95,SW,225,1.3,4.9,62,0.00,,,0.00,WUHU21623XXSP,2013-01-21 19:49:00,
2013-01-21 14:54:00,14.0,3.0,29.95,SW,225,1.6,7.2,61,0.00,,,0.00,WUHU21623XXSP,2013-01-21 19:54:00,
2013-01-21 14:59:00,14.5,3.3,29.96,North,0,0.0,7.2,60,0.00,,,0.00,WUHU21623XXSP,2013-01-21 19:59:00,
2013-01-21 15:04:00,14.9,3.1,29.96,SW,225,0.0,5.1,59,0.00,,,0.00,WUHU21623XXSP,2013-01-21 20:04:00,
2013-01-21 15:09:00,15.1,2.9,29.96,SSW,202,0.0,5.1,58,0.00,,,0.00,WUHU21623XXSP,2013-01-21 20:09:00,
2013-01-21 15:14:00,14.9,1.9,29.96,SW,225,0.0,0.0,56,0.00,,,0.00,WUHU21623XXSP,2013-01-21 20:14:00,
2013-01-21 15:19:00,14.7,1.7,29.96,SSW,202,2.2,2.2,56,0.00,,,0.00,WUHU21623XXSP,2013-01-21 20:19:00,
2013-01-21 15:24:00,14.7,1.4,29.96,SSW,202,5.4,7.8,55,0.00,,,0.00,WUHU21623XXSP,2013-01-21 20:24:00,
2013-01-21 15:29:00,14.7,1.7,29.96,SW,225,1.6,7.8,56,0.00,,,0.00,WUHU21623XXSP,2013-01-21 20:29:00,
2013-01-21 15:34:00,14.7,1.7,29.96,SW,225,0.0,3.1,56,0.00,,,0.00,WUHU21623XXSP,2013-01-21 20:34:00,
2013-01-21 15:39:00,14.7,1.7,29.96,North,0,0.0,3.1,56,0.00,,,0.00,WUHU21623XXSP,2013-01-21 20:39:00,
2013-01-21 15:44:00,14.5,1.6,29.97,North,0,6.9,6.9,56,0.00,,,0.00,WUHU21623XXSP,2013-01-21 20:44:00,
2013-01-21 15:49:00,14.4,2.2,29.97,NNW,337,0.4,11.9,58,0.00,,,0.00,WUHU21623XXSP,2013-01-21 20:49:00,
2013-01-21 15:54:00,13.8,2.5,29.97,North,0,0.4,11.9,60,0.00,,,0.00,WUHU21623XXSP,2013-01-21 20:54:00,
2013-01-21 15:59:00,13.3,2.3,29.97,SSW,202,0.0,6.9,61,0.00,,,0.00,WUHU21623XXSP,2013-01-21 20:59:00,
2013-01-21 16:04:00,12.9,2.1,29.98,SSW,202,0.0,6.9,62,0.00,,,0.00,WUHU21623XXSP,2013-01-21 21:04:00,
2013-01-21 16:09:00,12.6,2.2,29.98,SSW,202,0.0,6.0,63,0.00,,,0.00,WUHU21623XXSP,2013-01-21 21:09:00,
2013-01-21 16:14:00,12.0,1.7,29.98,SSW,202,0.0,6.9,63,0.00,,,0.00,WUHU21623XXSP,2013-01-21 21:14:00,
2013-01-21 16:19:00,11.8,1.9,29.98,SW,225,4.3,6.9,64,0.00,,,0.00,WUHU21623XXSP,2013-01-21 21:19:00,
2013-01-21 16:24:00,11.5,1.9,29.98,North,0,3.6,4.3,65,0.00,,,0.00,WUHU21623XXSP,2013-01-21 21:24:00,
2013-01-21 16:29:00,11.3,1.7,29.98,SW,225,0.0,4.3,65,0.00,,,0.00,WUHU21623XXSP,2013-01-21 21:29:00,
2013-01-21 16:34:00,11.1,1.5,29.98,North,0,6.0,6.0,65,0.00,,,0.00,WUHU21623XXSP,2013-01-21 21:34:00,
2013-01-21 16:39:00,10.9,1.4,29.99,SSW,202,0.0,6.0,65,0.00,,,0.00,WUHU21623XXSP,2013-01-21 21:39:00,
2013-01-21 16:44:00,10.8,1.2,29.98,SW,225,1.8,4.7,65,0.00,,,0.00,WUHU21623XXSP,2013-01-21 21:44:00,
2013-01-21 16:49:00,10.6,1.0,29.99,SW,225,0.0,1.8,65,0.00,,,0.00,WUHU21623XXSP,2013-01-21 21:49:00,
2013-01-21 16:54:00,10.6,1.3,29.98,North,0,5.4,5.4,66,0.00,,,0.00,WUHU21623XXSP,2013-01-21 21:54:00,
2013-01-21 16:59:00,10.2,1.0,29.99,SW,225,1.6,5.4,66,0.00,,,0.00,WUHU21623XXSP,2013-01-21 21:59:00,
2013-01-21 17:04:00,10.0,1.3,29.99,North,0,7.4,7.4,67,0.00,,,0.00,WUHU21623XXSP,2013-01-21 22:04:00,
2013-01-21 17:09:00,10.0,1.5,29.99,SW,225,0.0,7.4,68,0.00,,,0.00,WUHU21623XXSP,2013-01-21 22:09:00,
2013-01-21 17:14:00,10.0,1.5,29.99,North,0,0.0,2.9,68,0.00,,,0.00,WUHU21623XXSP,2013-01-21 22:14:00,
2013-01-21 17:19:00,9.7,1.5,29.99,NNW,337,2.0,3.8,69,0.00,,,0.00,WUHU21623XXSP,2013-01-21 22:19:00,
2013-01-21 17:24:00,9.7,1.5,29.99,SW,225,4.3,4.3,68,0.00,,,0.00,WUHU21623XXSP,2013-01-21 22:24:00,
2013-01-21 17:29:00,9.5,1.2,30.00,SW,225,4.3,4.3,67,0.00,,,0.00,WUHU21623XXSP,2013-01-21 22:29:00,
2013-01-21 17:34:00,9.3,0.2,30.00,SW,225,4.3,4.3,66,0.00,,,0.00,WUHU21623XXSP,2013-01-21 22:34:00,
2013-01-21 17:39:00,9.1,-0.3,30.00,SW,225,0.0,4.3,65,0.00,,,0.00,WUHU21623XXSP,2013-01-21 22:39:00,
2013-01-21 17:44:00,9.1,-0.3,30.00,SW,225,5.8,5.8,65,0.00,,,0.00,WUHU21623XXSP,2013-01-21 22:44:00,
2013-01-21 17:49:00,9.0,-0.5,30.00,SSW,202,0.0,7.2,65,0.00,,,0.00,WUHU21623XXSP,2013-01-21 22:49:00,
2013-01-21 17:54:00,8.8,-0.7,30.00,SW,225,0.0,7.2,65,0.00,,,0.00,WUHU21623XXSP,2013-01-21 22:54:00,
2013-01-21 17:59:00,8.8,-0.7,30.00,North,0,2.0,2.0,65,0.00,,,0.00,WUHU21623XXSP,2013-01-21 22:59:00,
2013-01-21 18:04:00,8.6,-0.5,30.01,SW,225,0.0,2.0,66,0.00,,,0.00,WUHU21623XXSP,2013-01-21 23:04:00,
2013-01-21 18:09:00,8.4,-0.3,30.01,NNW,337,5.4,5.4,67,0.00,,,0.00,WUHU21623XXSP,2013-01-21 23:09:00,
2013-01-21 18:14:00,8.4,-0.3,30.01,SSW,202,5.1,5.4,67,0.00,,,0.00,WUHU21623XXSP,2013-01-21 23:14:00,
2013-01-21 18:19:00,8.2,0.3,30.01,SSW,202,2.9,5.1,69,0.00,,,0.00,WUHU21623XXSP,2013-01-21 23:19:00,
2013-01-21 18:24:00,8.1,0.2,30.01,SSW,202,0.0,2.9,69,0.00,,,0.00,WUHU21623XXSP,2013-01-21 23:24:00,
2013-01-21 18:29:00,7.9,0.0,30.01,SSW,202,0.0,0.0,70,0.00,,,0.00,WUHU21623XXSP,2013-01-21 23:29:00,
2013-01-21 18:34:00,7.7,0.0,30.01,SW,225,0.0,5.6,70,0.00,,,0.00,WUHU21623XXSP,2013-01-21 23:34:00,
2013-01-21 18:39:00,7.7,0.0,30.02,SW,225,0.0,5.6,70,0.00,,,0.00,WUHU21623XXSP,2013-01-21 23:39:00,
2013-01-21 18:44:00,7.5,0.1,30.01,South,180,0.0,7.6,71,0.00,,,0.00,WUHU21623XXSP,2013-01-21 23:44:00,
2013-01-21 18:49:00,7.5,0.1,30.02,SW,225,0.0,7.6,71,0.00,,,0.00,WUHU21623XXSP,2013-01-21 23:49:00,
2013-01-21 18:54:00,7.5,0.4,30.02,North,0,5.8,6.5,72,0.00,,,0.00,WUHU21623XXSP,2013-01-21 23:54:00,
2013-01-21 18:59:00,7.3,0.2,30.02,SW,225,7.2,7.2,72,0.00,,,0.00,WUHU21623XXSP,2013-01-21 23:59:00,
2013-01-21 19:04:00,7.0,-0.5,30.02,SSW,202,0.0,7.2,71,0.00,,,0.00,WUHU21623XXSP,2013-01-22 00:04:00,
2013-01-21 19:09:00,6.8,-0.7,30.03,SW,225,0.0,5.1,71,0.00,,,0.00,WUHU21623XXSP,2013-01-22 00:09:00,
2013-01-21 19:14:00,6.6,-1.1,30.03,SW,225,0.0,4.9,69,0.00,,,0.00,WUHU21623XXSP,2013-01-22 00:14:00,
2013-01-21 19:19:00,6.4,-1.6,30.03,SW,225,0.0,4.3,69,0.00,,,0.00,WUHU21623XXSP,2013-01-22 00:19:00,
2013-01-21 19:24:00,6.1,-2.3,30.03,SSW,202,0.0,6.7,68,0.00,,,0.00,WUHU21623XXSP,2013-01-22 00:24:00,
2013-01-21 19:29:00,6.1,-2.3,30.03,SW,225,0.0,6.7,68,0.00,,,0.00,WUHU21623XXSP,2013-01-22 00:29:00,
2013-01-21 19:34:00,5.9,-2.8,30.02,SW,225,2.9,2.9,67,0.00,,,0.00,WUHU21623XXSP,2013-01-22 00:34:00,
2013-01-21 19:39:00,5.7,-3.0,30.03,North,0,2.7,2.9,67,0.00,,,0.00,WUHU21623XXSP,2013-01-22 00:39:00,
2013-01-21 19:44:00,5.7,-3.0,30.03,SW,225,0.0,2.7,67,0.00,,,0.00,WUHU21623XXSP,2013-01-22 00:44:00,
2013-01-21 19:49:00,5.5,-3.5,30.03,SSW,202,0.0,0.0,66,0.00,,,0.00,WUHU21623XXSP,2013-01-22 00:49:00,
2013-01-21 19:54:00,5.4,-3.5,30.03,SSW,202,0.0,0.0,66,0.00,,,0.00,WUHU21623XXSP,2013-01-22 00:54:00,
2013-01-21 19:59:00,5.4,-3.7,30.03,SSW,202,0.0,0.0,66,0.00,,,0.00,WUHU21623XXSP,2013-01-22 00:59:00,
2013-01-21 20:04:00,5.2,-3.9,30.04,SW,225,0.0,0.0,66,0.00,,,0.00,WUHU21623XXSP,2013-01-22 01:04:00,
2013-01-21 20:09:00,5.0,-4.0,30.03,North,0,0.0,0.0,66,0.00,,,0.00,WUHU21623XXSP,2013-01-22 01:09:00,
2013-01-21 20:14:00,4.8,-4.2,30.03,SW,225,0.0,0.0,66,0.00,,,0.00,WUHU21623XXSP,2013-01-22 01:14:00,
2013-01-21 20:19:00,4.8,-4.2,30.04,SW,225,0.0,0.0,66,0.00,,,0.00,WUHU21623XXSP,2013-01-22 01:19:00,
2013-01-21 20:24:00,4.6,-4.4,30.04,SW,225,0.0,0.0,66,0.00,,,0.00,WUHU21623XXSP,2013-01-22 01:24:00,
2013-01-21 20:29:00,4.6,-4.7,30.04,SSW,202,0.0,0.0,65,0.00,,,0.00,WUHU21623XXSP,2013-01-22 01:29:00,
2013-01-21 20:34:00,4.6,-4.7,30.04,North,0,0.0,0.0,65,0.00,,,0.00,WUHU21623XXSP,2013-01-22 01:34:00,
2013-01-21 20:39:00,4.5,-4.8,30.04,SSW,202,0.0,0.0,65,0.00,,,0.00,WUHU21623XXSP,2013-01-22 01:39:00,
2013-01-21 20:44:00,4.5,-4.8,30.04,SW,225,0.0,0.0,65,0.00,,,0.00,WUHU21623XXSP,2013-01-22 01:44:00,
2013-01-21 20:49:00,4.3,-5.0,30.04,North,0,0.0,0.0,65,0.00,,,0.00,WUHU21623XXSP,2013-01-22 01:49:00,
2013-01-21 20:54:00,4.3,-5.0,30.04,SW,225,2.9,2.9,65,0.00,,,0.00,WUHU21623XXSP,2013-01-22 01:54:00,
2013-01-21 20:59:00,4.1,-5.2,30.04,SW,225,0.0,2.9,65,0.00,,,0.00,WUHU21623XXSP,2013-01-22 01:59:00,
2013-01-21 21:04:00,3.9,-5.3,30.04,SW,225,0.0,2.9,65,0.00,,,0.00,WUHU21623XXSP,2013-01-22 02:04:00,
2013-01-21 21:09:00,3.9,-5.3,30.04,North,0,5.8,5.8,65,0.00,,,0.00,WUHU21623XXSP,2013-01-22 02:09:00,
2013-01-21 21:14:00,3.9,-5.3,30.05,SW,225,0.0,5.8,65,0.00,,,0.00,WUHU21623XXSP,2013-01-22 02:14:00,
2013-01-21 21:19:00,3.9,-5.0,30.04,SSW,202,0.0,4.0,66,0.00,,,0.00,WUHU21623XXSP,2013-01-22 02:19:00,
2013-01-21 21:24:00,3.7,-5.2,30.05,SW,225,0.0,0.0,66,0.00,,,0.00,WUHU21623XXSP,2013-01-22 02:24:00,
2013-01-21 21:29:00,3.7,-5.2,30.05,SW,225,0.0,0.0,66,0.00,,,0.00,WUHU21623XXSP,2013-01-22 02:29:00,
2013-01-21 21:34:00,3.6,-5.3,30.05,SW,225,0.0,0.0,66,0.00,,,0.00,WUHU21623XXSP,2013-01-22 02:34:00,
2013-01-21 21:39:00,3.6,-5.3,30.05,SSW,202,0.0,0.0,66,0.00,,,0.00,WUHU21623XXSP,2013-01-22 02:39:00,
2013-01-21 21:44:00,3.6,-5.3,30.05,SSW,202,0.0,3.8,66,0.00,,,0.00,WUHU21623XXSP,2013-01-22 02:44:00,
2013-01-21 21:49:00,3.4,-5.5,30.06,SW,225,0.0,3.8,66,0.00,,,0.00,WUHU21623XXSP,2013-01-22 02:49:00,
2013-01-21 21:54:00,3.4,-5.5,30.06,SSW,202,0.0,0.0,66,0.00,,,0.00,WUHU21623XXSP,2013-01-22 02:54:00,
2013-01-21 21:59:00,3.4,-5.5,30.06,SSW,202,0.0,0.0,66,0.00,,,0.00,WUHU21623XXSP,2013-01-22 02:59:00,
2013-01-21 22:04:00,3.4,-5.5,30.06,SSW,202,0.0,0.0,66,0.00,,,0.00,WUHU21623XXSP,2013-01-22 03:04:00,
2013-01-21 22:09:00,3.0,-5.5,30.06,SW,225,3.6,3.6,67,0.00,,,0.00,WUHU21623XXSP,2013-01-22 03:09:00,
2013-01-21 22:14:00,3.0,-5.5,30.06,SW,225,0.0,3.6,67,0.00,,,0.00,WUHU21623XXSP,2013-01-22 03:14:00,
2013-01-21 22:19:00,3.0,-5.5,30.06,SW,225,2.2,3.6,67,0.00,,,0.00,WUHU21623XXSP,2013-01-22 03:19:00,
2013-01-21 22:24:00,3.0,-5.5,30.06,SSW,202,0.0,2.2,67,0.00,,,0.00,WUHU21623XXSP,2013-01-22 03:24:00,
2013-01-21 22:29:00,2.8,-5.5,30.06,SSW,202,2.7,2.7,67,0.00,,,0.00,WUHU21623XXSP,2013-01-22 03:29:00,
2013-01-21 22:34:00,2.8,-5.7,30.06,SW,225,0.0,2.7,67,0.00,,,0.00,WUHU21623XXSP,2013-01-22 03:34:00,
2013-01-21 22:39:00,2.8,-5.7,30.07,NNW,337,0.0,1.6,67,0.00,,,0.00,WUHU21623XXSP,2013-01-22 03:39:00,
2013-01-21 22:44:00,2.8,-5.7,30.06,SW,225,0.0,0.0,67,0.00,,,0.00,WUHU21623XXSP,2013-01-22 03:44:00,
2013-01-21 22:49:00,2.8,-5.7,30.06,SW,225,0.0,0.0,67,0.00,,,0.00,WUHU21623XXSP,2013-01-22 03:49:00,
2013-01-21 22:54:00,2.8,-5.7,30.06,SSW,202,0.0,0.0,67,0.00,,,0.00,WUHU21623XXSP,2013-01-22 03:54:00,
2013-01-21 22:59:00,2.8,-5.4,30.07,SSW,202,0.0,0.0,68,0.00,,,0.00,WUHU21623XXSP,2013-01-22 03:59:00,
2013-01-21 23:04:00,2.8,-5.4,30.06,SSW,202,0.0,1.3,68,0.00,,,0.00,WUHU21623XXSP,2013-01-22 04:04:00,
2013-01-21 23:09:00,2.8,-5.4,30.07,SW,225,1.6,1.6,68,0.00,,,0.00,WUHU21623XXSP,2013-01-22 04:09:00,
2013-01-21 23:14:00,2.8,-5.4,30.07,SW,225,0.4,4.0,68,0.00,,,0.00,WUHU21623XXSP,2013-01-22 04:14:00,
2013-01-21 23:19:00,2.8,-5.4,30.07,South,180,0.0,4.0,68,0.00,,,0.00,WUHU21623XXSP,2013-01-22 04:19:00,
2013-01-21 23:24:00,2.8,-5.4,30.07,SW,225,1.1,1.1,68,0.00,,,0.00,WUHU21623XXSP,2013-01-22 04:24:00,
2013-01-21 23:29:00,2.8,-5.4,30.07,SW,225,0.0,1.1,68,0.00,,,0.00,WUHU21623XXSP,2013-01-22 04:29:00,
2013-01-21 23:34:00,2.8,-5.4,30.07,North,0,0.0,0.0,69,0.00,,,0.00,WUHU21623XXSP,2013-01-22 04:34:00,
2013-01-21 23:39:00,2.8,-5.0,30.08,SSW,202,0.0,1.6,69,0.00,,,0.00,WUHU21623XXSP,2013-01-22 04:39:00,
2013-01-21 23:44:00,2.8,-5.0,30.08,SSW,202,0.0,1.6,68,0.00,,,0.00,WUHU21623XXSP,2013-01-22 04:44:00,
2013-01-21 23:49:00,2.8,-5.4,30.08,SW,225,0.0,0.0,68,0.00,,,0.00,WUHU21623XXSP,2013-01-22 04:49:00,
2013-01-21 23:54:00,2.8,-5.4,30.08,NNW,337,4.5,4.5,68,0.00,,,0.00,WUHU21623XXSP,2013-01-22 04:54:00,
2013-01-21 23:59:00,2.8,-5.4,30.08,SW,225,0.0,4.5,68,0.00,,,0.00,WUHU21623XXSP,2013-01-22 04:59:00,